Regional Weather Roundup
Issued by NWS Memphis, TN

Current Version | Previous Version | Text Only | Print | Product List | Glossary On
Versions: 1 2 3 4 5 6 7 8 9 10 11 12 13 14 15 16 17 18 19 20 21 22 23 24 25 26 27 28 29 30 31 32 33 34 35 36 37 38 39 40 41 42 43 44 45 46 47 48 49 50
000
ASUS44 KMEG 262010
RWRMEG
MEMPHIS CWA HOURLY WEATHER ROUNDUP
NATIONAL WEATHER SERVICE MEMPHIS TN
300 PM CDT THU MAY 26 2016

...WEST TENNESSEE...

CITY           SKY/WX    TMP DP  RH WIND       PRES   REMARKS
MEMPHIS INTL   FAIR      88  72  58 S13G18    29.98F HX  94
NWS MEMPHIS      N/A     88 N/A N/A MISG        N/A
JACKSON        FAIR      88  72  58 S12       29.99F HX  94
LEXINGTON      MOSUNNY   86  72  62 S9        29.99S HX  92
DYERSBURG      FAIR      88  72  58 SW7G16    29.98S HX  94
UNION CITY     MOSUNNY   84  73  70 SW9       29.97S HX  91
PARIS          MOSUNNY   84  72  65 SW9       29.99S


...EASTERN ARKANSAS...

CITY           SKY/WX    TMP DP  RH WIND       PRES   REMARKS
JONESBORO      FAIR      85  71  63 SW17      29.96S HX  90
WEST MEMPHIS   FAIR      88  73  61 S12       29.96F HX  95
BATESVILLE     CLOUDY    82  72  69 SE7       29.95F
NEWPORT        PTSUNNY   85  74  69 S12       29.96F HX  92
WALNUT RIDGE   FAIR      82  72  69 S15       29.96R
BLYTHEVILLE    PTSUNNY   86  71  60 S12       29.99R HX  91
NW BLYTHEVILLE PTSUNNY   88  73  62 S13G25    29.98R HX  96
SEARCY         FAIR      84  75  74 S8        29.95F THUNDER HX  92
STUTTGART      PTSUNNY   90  72  55 S17       29.95F HX  96
PINE BLUFF     PTSUNNY   85  72  65 S13       29.97F HX  91
MONTICELLO     PTSUNNY   89  71  55 S9        29.98S HX  95


...NORTH MISSISSIPPI...

CITY           SKY/WX    TMP DP  RH WIND       PRES   REMARKS
TUPELO         FAIR      90  68  48 SE13      30.00F HX  94
OXFORD         FAIR      86  68  54 SE9       30.01F
BATESVILLE     FAIR      90  67  47 S12       29.98F HX  93
OLIVE BRANCH   PTSUNNY   88  79  74 S9        29.99F HX 102
TUNICA         FAIR      88  70  55 S12G18    29.96F HX  92
CLARKSDALE     MOSUNNY   90  72  55 S15       29.96F HX  96
CORINTH        PTSUNNY   88  70  55 S9        30.00S HX  92
GREENWOOD      FAIR      91  69  48 S16       29.99F HX  96
COLUMBUS       FAIR      90  59  34 SE12G24   30.03F
STARKVILLE     FAIR      90  66  45 SE9       30.02F HX  92
GOLDEN TRIANGL MOSUNNY   90  61  37 SE12      30.03F


...SOUTHEAST MISSOURI...

CITY           SKY/WX    TMP DP  RH WIND       PRES   REMARKS
KENNETT        PTSUNNY   86  73  66 SW13G18   29.96F HX  93
WEST PLAINS    FAIR      84  70  62 S13       29.95S
POPLAR BLUFF   CLOUDY    70  66  87 NE13G35   30.00R
CAPE GIRARDEAU LGT RAIN  66  64  93 SE12      30.02R FOG


...NORTHWEST ALABAMA...

CITY           SKY/WX    TMP DP  RH WIND       PRES   REMARKS
MUSCLE SHOALS  FAIR      92  55  28 S14       30.03F HX  90


...MIDDLE TENNESSEE...

CITY           SKY/WX    TMP DP  RH WIND       PRES   REMARKS
NASHVILLE      PTSUNNY   90  63  40 S9G18     30.02F HX  91
CLARKSVILLE    FAIR      75  66  73 NE14      30.02R
COLUMBIA       SUNNY     90  66  45 S12       30.01F HX  92


...WESTERN KENTUCKY...

CITY           SKY/WX    TMP DP  RH WIND       PRES   REMARKS
PADUCAH        LGT RAIN  67  64  90 SE6       30.04F FOG
FORT CAMPBELL  PTSUNNY   72  66  83 N15       30.03R


...CENTRAL ARKANSAS...

CITY           SKY/WX    TMP DP  RH WIND       PRES   REMARKS
LITTLE ROCK    CLOUDY    84  73  69 S12       29.96S HX  90


SKY/WX REPORTED AS FAIR MEANS FEW OR NO CLOUDS BELOW
12 THOUSAND FEET.





USA.gov is the U.S. government's official web portal to all federal, state and local government web resources and services.